Weather History for Pecs, Hungary

Change the Weather History Date:

Tuesday, December 25, 2012

  Actual Average Record
Temperature  
Mean Temperature 46 °F -  
Max Temperature 55 °F 36 °F - ()
Min Temperature 37 °F 26 °F - ()
Degree Days  
Heating Degree Days 19    
Moisture  
Dew Point 41 °F    
Average Humidity 72    
Maximum Humidity 87    
Minimum Humidity 63    
Precipitation  
Precipitation 0.00 in 0.05 in - ()
Sea Level Pressure  
Sea Level Pressure 29.99 in    
Wind  
Wind Speed 10 mph ()    
Max Wind Speed 20 mph    
Max Gust Speed 32 mph    
Visibility 12.5 miles    
Events      
T = Trace of Precipitation, MM = Missing Value Source: Averaged Metar Reports

Daily Weather History Graph

Daily Weather History Graph

Search for Another Location

Airport:

Trip Planner

Search our weather history database for the weather conditions in past years. The results will help you decide how hot, cold, wet, or windy it might be!

Date:

Astronomy

Dec. 25, 2012 Rise Set
Actual Time 7:27 AM CET 4:06 PM CET
Civil Twilight 6:53 AM CET 4:41 PM CET
Nautical Twilight 6:15 AM CET 5:19 PM CET
Astronomical Twilight 5:38 AM CET 5:55 PM CET
Moon 2:04 PM CET (12/25) 4:41 AM CET (12/25)
Length of Visible Light 9h 48m
Length of Day
8h 39m
Waxing Gibbous, 92% of the Moon is Illuminated
Dec 25
Waxing Gibbous
Dec 28
Full
Jan 5
Last Quarter
Jan 11
New
Jan 19
First Quarter

Hourly Weather History & Observations

Time (CET) Temp. Windchill Dew Point Humidity Pressure Visibility Wind Dir Wind Speed Gust Speed Precip Events Conditions
12:45 AM 46.4 °F 40.4 °F 39.2 °F 76% 30.01 in - SW 13.8 mph - N/A   Clear
1:00 AM 46 °F - 39 °F 67% 30.04 in 9 mi SW 13.4 mph - -   Partly Cloudy
1:45 AM 41.0 °F 35.2 °F 35.6 °F 81% 30.04 in - SW 9.2 mph - N/A   Clear
2:45 AM 44.6 °F 39.7 °F 37.4 °F 76% 30.01 in - WSW 9.2 mph - N/A   Clear
3:45 AM 44.6 °F 40.7 °F 37.4 °F 76% 30.01 in - WSW 6.9 mph - N/A   Clear
4:45 AM 44.6 °F 40.2 °F 37.4 °F 76% 30.01 in - WSW 8.1 mph - N/A   Clear
5:15 AM 46.4 °F 41.9 °F 39.2 °F 76% 30.01 in - WSW 9.2 mph - N/A   Clear
5:45 AM 46.4 °F 41.9 °F 39.2 °F 76% 30.01 in - West 9.2 mph - N/A   Clear
6:00 AM - - - N/A% - - WSW 9.2 mph - N/A   Clear
6:15 AM 48.2 °F - 39.2 °F 71% 30.01 in - WSW 8.1 mph - N/A   Clear
6:45 AM 48.2 °F - 39.2 °F 71% 30.01 in - WSW 9.2 mph - N/A   Clear
7:00 AM 48 °F - 39 °F 63% 30.02 in 16 mi WSW 8.9 mph - -   Partly Cloudy
7:15 AM 41.0 °F 36.4 °F 35.6 °F 81% 30.01 in - SW 6.9 mph - N/A   Clear
7:45 AM 44.6 °F 40.2 °F 39.2 °F 81% 30.01 in - WSW 8.1 mph - N/A   Clear
8:00 AM - - - N/A% - - North - - N/A   Unknown
8:15 AM 46.4 °F 41.1 °F 39.2 °F 76% 30.01 in - WSW 11.5 mph - N/A   Clear
9:15 AM 42.8 °F 37.5 °F 39.2 °F 87% 30.01 in - SW 9.2 mph - N/A   Clear
9:45 AM 44.6 °F 40.7 °F 39.2 °F 81% 30.04 in - SW 6.9 mph - N/A   Clear
10:15 AM 48.2 °F - 41.0 °F 76% 30.01 in - WSW 9.2 mph - N/A   Clear
10:45 AM 50.0 °F - 42.8 °F 76% 30.01 in - WSW 6.9 mph - N/A   Clear
11:15 AM 51.8 °F - 42.8 °F 71% 30.01 in - WSW 6.9 mph - N/A   Clear
11:38 AM 53.6 °F - 42.8 °F 67% 30.01 in - WSW 18.4 mph - N/A   Unknown
11:45 AM 53.6 °F - 42.8 °F 67% 30.01 in - WSW 17.3 mph - N/A   Clear
12:15 PM 55.4 °F - 42.8 °F 63% 29.98 in - WSW 19.6 mph 32.2 mph N/A   Clear
1:15 PM 55.4 °F - 42.8 °F 63% 29.98 in - WSW 15.0 mph - N/A   Clear
1:45 PM 55.4 °F - 44.6 °F 67% 29.95 in - WSW 19.6 mph 31.1 mph N/A   Clear
2:15 PM 55.4 °F - 42.8 °F 63% 29.95 in - WSW 16.1 mph - N/A   Clear
2:45 PM 55.4 °F - 42.8 °F 63% 29.95 in - WSW 19.6 mph - N/A   Clear
3:15 PM 53.6 °F - 42.8 °F 67% 29.95 in - WSW 17.3 mph - N/A   Clear
3:45 PM 53.6 °F - 42.8 °F 67% 29.95 in - WSW 12.7 mph - N/A   Clear
4:15 PM 53.6 °F - 42.8 °F 67% 29.95 in - WSW 12.7 mph - N/A   Clear
4:45 PM 53.6 °F - 42.8 °F 67% 29.95 in - WSW 11.5 mph - N/A   Clear
5:15 PM 51.8 °F - 42.8 °F 71% 29.98 in - WSW 6.9 mph - N/A   Clear
5:45 PM 51.8 °F - 42.8 °F 71% 29.98 in - WSW 8.1 mph - N/A   Clear
6:15 PM 51.8 °F - 42.8 °F 71% 29.98 in - WSW 6.9 mph - N/A   Clear
6:45 PM 51.8 °F - 42.8 °F 71% 29.98 in - WSW 8.1 mph - N/A   Clear
7:00 PM 52 °F - 43 °F 63% 29.99 in 44 mi WSW 6.7 mph - -   Partly Cloudy
7:15 PM 51.8 °F - 42.8 °F 71% 29.98 in - WSW 9.2 mph - N/A   Clear
8:15 PM 51.8 °F - 42.8 °F 71% 29.98 in - WSW 10.4 mph - N/A   Clear
8:45 PM 51.8 °F - 42.8 °F 71% 29.98 in - WSW 9.2 mph - N/A   Clear
9:45 PM 51.8 °F - 42.8 °F 71% 29.98 in - WSW 8.1 mph - N/A   Clear
10:45 PM 51.8 °F - 42.8 °F 71% 30.01 in - WSW 8.1 mph - N/A   Clear
11:45 PM 51.8 °F - 42.8 °F 71% 30.01 in - WSW 8.1 mph - N/A   Clear